Location: Drocourt
(49.0571°N, 1.7669°E)
Time: 16:30:53
(UTC+00:00)

SR - Pass Details

Date: 01 May 2024
Orbit: 579 x 860 km, 66.7° (Epoch: 22 May)

Event Time Altitude Azimuth Distance (km) Brightness Sun altitude
Rises 02:07:56 0° 286° (WNW) 3,198 ? -18.9°
Reaches altitude 10° 02:11:54 10° 315° (NW) 2,201 ? -18.5°
Maximum altitude 02:13:59 12° 340° (NNW) 2,002 ? -18.3°
Drops below altitude 10° 02:16:00 10° 5° (N) 2,126 ? -18.1°
Sets 02:19:41 0° 35° (NE) 2,972 ? -17.7°
